Change the Weather History Date:

Friday, September 12, 2014

  Actual Average Record
Temperature  
Mean Temperature 54 °F 60 °F  
Max Temperature 63 °F 71 °F 91 °F (1931)
Min Temperature 44 °F 49 °F 33 °F (1933)
Degree Days  
Heating Degree Days 11 6  
Month to date heating degree days 32 51  
Since 1 July heating degree days 105 129  
Cooling Degree Days 0 1  
Month to date cooling degree days 33 15  
Year to date cooling degree days 232 285  
Growing Degree Days 4 (Base 50)    
Moisture  
Dew Point 47 °F    
Average Humidity 78    
Maximum Humidity 100    
Minimum Humidity 56    
Precipitation  
Precipitation 0.00 in 0.13 in 3.36 in (1960)
Month to date precipitation 0.91 1.36  
Year to date precipitation 31.83 31.14  
Sea Level Pressure  
Sea Level Pressure 30.09 in    
Wind  
Wind Speed 8 mph (NNW)    
Max Wind Speed 20 mph    
Max Gust Speed 25 mph    
Visibility 10 miles    
Events      
T = Trace of Precipitation, MM = Missing Value Source: NWS Daily Summary

Daily Weather History Graph

Daily Weather History Graph

Search for Another Location

Airport or City:

Trip Planner

Search our weather history database for the weather conditions in past years. The results will help you decide how hot, cold, wet, or windy it might be!

Date:

Astronomy

Sep. 12, 2014 Rise Set
Actual Time 6:29 AM EDT 7:08 PM EDT
Civil Twilight 6:01 AM EDT 7:36 PM EDT
Nautical Twilight 5:27 AM EDT 8:09 PM EDT
Astronomical Twilight 4:53 AM EDT 8:44 PM EDT
Moon 9:21 PM EDT (9/12) 10:35 AM EDT (9/12)
Length of Visible Light 13h 35m
Length of Day
12h 38m
Waning Gibbous, 83% of the Moon is Illuminated
Sep 12
Waning Gibbous
Sep 15
Last Quarter
Sep 24
New
Oct 1
First Quarter
Oct 8
Full

Hourly Weather History & Observations

Time (EDT) Temp. Windchill Dew Point Humidity Pressure Visibility Wind Dir Wind Speed Gust Speed Precip Events Conditions
12:54 AM 55.9 °F - 50.0 °F 80% 29.95 in 10.0 mi WNW 10.4 mph 25.3 mph N/A   Overcast
1:54 AM 55.0 °F - 48.9 °F 80% 29.95 in 10.0 mi NW 11.5 mph 25.3 mph N/A   Overcast
2:54 AM 55.0 °F - 48.9 °F 80% 29.96 in 10.0 mi WNW 11.5 mph 24.2 mph N/A   Overcast
3:54 AM 54.0 °F - 48.0 °F 80% 29.97 in 10.0 mi WNW 10.4 mph - N/A   Overcast
5:38 AM 54.0 °F - 48.9 °F 83% 30.05 in 10.0 mi NW 8.1 mph 17.3 mph N/A   Overcast
5:54 AM 53.1 °F - 50.0 °F 89% 30.01 in 10.0 mi NW 10.4 mph 17.3 mph N/A   Overcast
6:27 AM 53.1 °F - 50.0 °F 89% 30.07 in 6.0 mi North 5.8 mph - N/A   Overcast
6:49 AM 51.8 °F - 48.2 °F 88% 30.08 in 10.0 mi Variable 6.9 mph - N/A   Overcast
6:54 AM 52.0 °F - 48.0 °F 86% 30.04 in 10.0 mi NNW 6.9 mph 19.6 mph N/A   Overcast
7:01 AM 52.0 °F - 48.0 °F 86% 30.08 in 10.0 mi NW 10.4 mph 18.4 mph N/A   Overcast
7:42 AM 53.1 °F - 46.0 °F 77% 30.10 in 10.0 mi North 9.2 mph - N/A   Scattered Clouds
7:52 AM 53.6 °F - 46.4 °F 77% 30.10 in 10.0 mi North 11.5 mph 18.4 mph N/A   Mostly Cloudy
7:54 AM 53.1 °F - 46.0 °F 77% 30.06 in 10.0 mi NNW 12.7 mph 18.4 mph N/A   Scattered Clouds
8:20 AM 54.0 °F - 46.0 °F 75% 30.11 in 10.0 mi Variable 5.8 mph 20.7 mph N/A   Mostly Cloudy
8:54 AM 55.0 °F - 46.9 °F 74% 30.09 in 10.0 mi NW 13.8 mph 19.6 mph N/A   Overcast
9:13 AM 54.0 °F - 45.0 °F 72% 30.13 in 10.0 mi NW 13.8 mph 21.9 mph N/A   Scattered Clouds
9:54 AM 54.0 °F - 45.0 °F 72% 30.11 in 10.0 mi WNW 12.7 mph - N/A   Mostly Cloudy
10:54 AM 55.0 °F - 45.0 °F 69% 30.11 in 10.0 mi WNW 9.2 mph - N/A   Overcast
11:54 AM 55.9 °F - 46.9 °F 72% 30.11 in 10.0 mi NNW 8.1 mph - N/A   Mostly Cloudy
12:16 PM 57.9 °F - 46.9 °F 67% 30.14 in 10.0 mi NW 13.8 mph 18.4 mph N/A   Scattered Clouds
12:54 PM 59.0 °F - 46.9 °F 64% 30.10 in 10.0 mi NW 10.4 mph - N/A   Scattered Clouds
1:54 PM 60.1 °F - 46.0 °F 60% 30.11 in 10.0 mi North 10.4 mph - N/A   Clear
2:54 PM 62.1 °F - 46.9 °F 58% 30.11 in 10.0 mi NW 11.5 mph - N/A   Clear
3:54 PM 62.1 °F - 46.0 °F 56% 30.12 in 10.0 mi North 8.1 mph - N/A   Clear
4:54 PM 61.0 °F - 46.0 °F 58% 30.12 in 10.0 mi North 8.1 mph - N/A   Clear
5:54 PM 59.0 °F - 46.9 °F 64% 30.14 in 10.0 mi North 8.1 mph - N/A   Clear
6:54 PM 55.9 °F - 46.9 °F 72% 30.14 in 10.0 mi North 3.5 mph - N/A   Clear
7:54 PM 53.1 °F - 46.9 °F 80% 30.17 in 10.0 mi WNW 3.5 mph - N/A   Clear
8:54 PM 51.1 °F - 46.0 °F 83% 30.18 in 10.0 mi Calm Calm - N/A   Clear
9:54 PM 50.0 °F - 46.0 °F 86% 30.19 in 10.0 mi Calm Calm - N/A   Clear
10:54 PM 46.0 °F 44.8 °F 44.1 °F 93% 30.21 in 10.0 mi ESE 3.5 mph - N/A   Clear
11:54 PM 45.0 °F - 44.1 °F 97% 30.21 in 10.0 mi Calm Calm - N/A   Clear